Location: ??????
(38.5153°N, 23.0340°E)
Time: 22:19:25
(UTC+00:00)

Cosmos 2151 - Pass Details

Date: 13 December 2025
Orbit: 559 x 575 km, 82.5° (Epoch: 14 January)

Event Time Altitude Azimuth Distance (km) Brightness Sun altitude
Rises 15:31:04 0° 353° (N) 2,788 6.2 -4.9°
Reaches altitude 10° 15:33:15 10° 354° (N) 1,888 5.4 -5.3°
Maximum altitude 15:37:26 84° 83° (E) 584 2.9 -6.1°
Drops below altitude 10° 15:41:34 10° 172° (S) 1,877 5.8 -6.8°
Sets 15:43:45 0° 173° (S) 2,771 6.6 -7.2°
